Time,TemperatureF,DewpointF,PressureIn,WindDirection,WindDirectionDegrees,WindSpeedMPH,WindSpeedGustMPH,Humidity,HourlyPrecipIn,Conditions,Clouds,dailyrainin,SoftwareType,DateUTC
2013-05-08 00:01:00,61.8,49.9,29.97,NNE,33,0.0,1.0,65,0.00,,,0.00,WeatherCatV1.15B25,2013-05-08 04:01:00,
2013-05-08 00:02:00,61.8,49.9,29.97,NNE,33,0.0,0.0,65,0.00,,,0.00,WeatherCatV1.15B25,2013-05-08 04:02:00,
2013-05-08 00:03:00,61.8,49.9,29.97,NNE,33,2.0,2.0,65,0.00,,,0.00,WeatherCatV1.15B25,2013-05-08 04:03:00,
2013-05-08 00:05:00,61.7,49.8,29.97,NNE,32,0.0,2.0,65,0.00,,,0.00,WeatherCatV1.15B25,2013-05-08 04:05:00,
2013-05-08 00:10:00,61.7,50.2,29.97,NNE,32,0.0,0.0,66,0.00,,,0.00,WeatherCatV1.15B25,2013-05-08 04:10:00,
2013-05-08 00:13:00,61.6,50.1,29.97,NNE,32,1.0,1.0,66,0.00,,,0.00,WeatherCatV1.15B25,2013-05-08 04:13:00,
2013-05-08 00:18:00,61.5,50.0,29.97,NNE,32,0.0,0.0,66,0.00,,,0.00,WeatherCatV1.15B25,2013-05-08 04:18:00,
2013-05-08 00:23:00,61.4,50.3,29.97,NNE,32,0.0,0.0,67,0.00,,,0.00,WeatherCatV1.15B25,2013-05-08 04:23:00,
2013-05-08 00:28:00,61.2,50.5,29.97,NNE,32,0.0,0.0,68,0.00,,,0.00,WeatherCatV1.15B25,2013-05-08 04:28:00,
2013-05-08 00:33:00,60.9,50.3,29.97,NNE,32,0.0,0.0,68,0.00,,,0.00,WeatherCatV1.15B25,2013-05-08 04:33:00,
2013-05-08 00:38:00,60.8,50.2,29.97,NNE,32,0.0,0.0,68,0.00,,,0.00,WeatherCatV1.15B25,2013-05-08 04:38:00,
2013-05-08 00:43:00,60.8,50.2,29.97,NNE,32,0.0,0.0,68,0.00,,,0.00,WeatherCatV1.15B25,2013-05-08 04:43:00,
2013-05-08 00:48:00,60.7,50.5,29.97,NNE,32,0.0,0.0,69,0.00,,,0.00,WeatherCatV1.15B25,2013-05-08 04:48:00,
2013-05-08 00:53:00,60.6,50.4,29.96,NNE,32,0.0,0.0,69,0.00,,,0.00,WeatherCatV1.15B25,2013-05-08 04:53:00,
2013-05-08 00:58:00,60.6,50.4,29.96,NNE,32,0.0,0.0,69,0.00,,,0.00,WeatherCatV1.15B25,2013-05-08 04:58:00,
2013-05-08 01:03:00,60.4,50.6,29.96,NNE,32,0.0,0.0,70,0.00,,,0.00,WeatherCatV1.15B25,2013-05-08 05:03:00,
2013-05-08 01:08:00,60.3,50.5,29.96,NNE,32,0.0,0.0,70,0.00,,,0.00,WeatherCatV1.15B25,2013-05-08 05:08:00,
2013-05-08 01:13:00,60.2,50.8,29.96,NNE,32,0.0,0.0,71,0.00,,,0.00,WeatherCatV1.15B25,2013-05-08 05:13:00,
2013-05-08 01:18:00,59.9,50.5,29.96,NNE,32,0.0,0.0,71,0.00,,,0.00,WeatherCatV1.15B25,2013-05-08 05:18:00,
2013-05-08 01:23:00,59.6,50.9,29.96,NNE,32,0.0,0.0,73,0.00,,,0.00,WeatherCatV1.15B25,2013-05-08 05:23:00,
2013-05-08 01:28:00,59.4,51.1,29.96,NNE,32,0.0,0.0,74,0.00,,,0.00,WeatherCatV1.15B25,2013-05-08 05:28:00,
2013-05-08 01:33:00,59.2,50.9,29.95,NNE,32,0.0,0.0,74,0.00,,,0.00,WeatherCatV1.15B25,2013-05-08 05:33:00,
2013-05-08 01:38:00,59.1,50.8,29.96,NNE,32,0.0,0.0,74,0.00,,,0.00,WeatherCatV1.15B25,2013-05-08 05:38:00,
2013-05-08 01:43:00,59.1,50.8,29.95,NNE,32,0.0,0.0,74,0.00,,,0.00,WeatherCatV1.15B25,2013-05-08 05:43:00,
2013-05-08 01:48:00,59.0,50.7,29.95,NNE,32,0.0,0.0,74,0.00,,,0.00,WeatherCatV1.15B25,2013-05-08 05:48:00,
2013-05-08 01:53:00,59.0,51.1,29.96,NNE,32,0.0,0.0,75,0.00,,,0.00,WeatherCatV1.15B25,2013-05-08 05:53:00,
2013-05-08 01:58:00,58.9,51.0,29.96,NNE,32,0.0,0.0,75,0.00,,,0.00,WeatherCatV1.15B25,2013-05-08 05:58:00,
2013-05-08 02:03:00,58.8,50.9,29.95,NNE,32,0.0,0.0,75,0.00,,,0.00,WeatherCatV1.15B25,2013-05-08 06:03:00,
2013-05-08 02:08:00,58.7,50.8,29.95,NNE,32,0.0,0.0,75,0.00,,,0.00,WeatherCatV1.15B25,2013-05-08 06:08:00,
2013-05-08 02:13:00,58.6,51.1,29.95,NNE,32,0.0,0.0,76,0.00,,,0.00,WeatherCatV1.15B25,2013-05-08 06:13:00,
2013-05-08 02:18:00,58.4,50.9,29.95,NNE,32,0.0,0.0,76,0.00,,,0.00,WeatherCatV1.15B25,2013-05-08 06:18:00,
2013-05-08 02:23:00,58.2,50.7,29.95,NNE,32,0.0,0.0,76,0.00,,,0.00,WeatherCatV1.15B25,2013-05-08 06:23:00,
2013-05-08 02:28:00,58.1,50.9,29.95,NNE,32,0.0,0.0,77,0.00,,,0.00,WeatherCatV1.15B25,2013-05-08 06:28:00,
2013-05-08 02:33:00,57.9,50.7,29.95,NNE,32,0.0,0.0,77,0.00,,,0.00,WeatherCatV1.15B25,2013-05-08 06:33:00,
2013-05-08 02:38:00,57.7,50.5,29.95,NNE,32,0.0,0.0,77,0.00,,,0.00,WeatherCatV1.15B25,2013-05-08 06:38:00,
2013-05-08 02:43:00,57.6,50.8,29.95,NNE,32,0.0,0.0,78,0.00,,,0.00,WeatherCatV1.15B25,2013-05-08 06:43:00,
2013-05-08 02:48:00,57.5,50.7,29.95,NNE,32,0.0,0.0,78,0.00,,,0.00,WeatherCatV1.15B25,2013-05-08 06:48:00,
2013-05-08 02:53:00,57.4,50.9,29.95,NNE,32,0.0,0.0,79,0.00,,,0.00,WeatherCatV1.15B25,2013-05-08 06:53:00,
2013-05-08 02:58:00,57.3,50.8,29.95,NNE,32,0.0,0.0,79,0.00,,,0.00,WeatherCatV1.15B25,2013-05-08 06:58:00,
2013-05-08 03:03:00,57.2,50.7,29.94,NNE,32,0.0,0.0,79,0.00,,,0.00,WeatherCatV1.15B25,2013-05-08 07:03:00,
2013-05-08 03:08:00,57.2,51.1,29.94,NNE,32,0.0,0.0,80,0.00,,,0.00,WeatherCatV1.15B25,2013-05-08 07:08:00,
2013-05-08 03:13:00,57.2,51.1,29.94,NNE,32,0.0,0.0,80,0.00,,,0.00,WeatherCatV1.15B25,2013-05-08 07:13:00,
2013-05-08 03:18:00,57.2,51.1,29.94,NNE,32,0.0,0.0,80,0.00,,,0.00,WeatherCatV1.15B25,2013-05-08 07:18:00,
2013-05-08 03:23:00,57.2,51.1,29.94,NNE,32,0.0,0.0,80,0.00,,,0.00,WeatherCatV1.15B25,2013-05-08 07:23:00,
2013-05-08 03:28:00,57.2,51.1,29.94,NNE,32,0.0,0.0,80,0.00,,,0.00,WeatherCatV1.15B25,2013-05-08 07:28:00,
2013-05-08 03:33:00,57.2,51.1,29.94,NNE,32,0.0,0.0,80,0.00,,,0.00,WeatherCatV1.15B25,2013-05-08 07:33:00,
2013-05-08 03:38:00,57.1,51.3,29.94,NNE,32,0.0,0.0,81,0.00,,,0.00,WeatherCatV1.15B25,2013-05-08 07:38:00,
2013-05-08 03:43:00,57.1,51.3,29.94,NNE,32,0.0,0.0,81,0.00,,,0.00,WeatherCatV1.15B25,2013-05-08 07:43:00,
2013-05-08 03:48:00,57.0,51.2,29.94,NNE,32,0.0,0.0,81,0.00,,,0.00,WeatherCatV1.15B25,2013-05-08 07:48:00,
2013-05-08 03:53:00,57.0,51.6,29.94,NNE,32,0.0,0.0,82,0.00,,,0.00,WeatherCatV1.15B25,2013-05-08 07:53:00,
2013-05-08 03:58:00,57.0,51.6,29.94,NNE,32,0.0,0.0,82,0.00,,,0.00,WeatherCatV1.15B25,2013-05-08 07:58:00,
2013-05-08 04:03:00,56.9,51.5,29.94,NNE,32,0.0,0.0,82,0.00,,,0.00,WeatherCatV1.15B25,2013-05-08 08:03:00,
2013-05-08 04:08:00,56.8,51.4,29.94,NNE,32,0.0,0.0,82,0.00,,,0.00,WeatherCatV1.15B25,2013-05-08 08:08:00,
2013-05-08 04:13:00,56.7,51.3,29.94,NNE,32,0.0,0.0,82,0.00,,,0.00,WeatherCatV1.15B25,2013-05-08 08:13:00,
2013-05-08 04:18:00,56.5,51.4,29.94,NNE,32,0.0,0.0,83,0.00,,,0.00,WeatherCatV1.15B25,2013-05-08 08:18:00,
2013-05-08 04:23:00,56.5,51.4,29.94,NNE,32,0.0,0.0,83,0.00,,,0.00,WeatherCatV1.15B25,2013-05-08 08:23:00,
2013-05-08 04:28:00,56.4,51.3,29.95,NNE,32,0.0,0.0,83,0.00,,,0.00,WeatherCatV1.15B25,2013-05-08 08:28:00,
2013-05-08 04:33:00,56.3,51.2,29.95,NNE,32,0.0,0.0,83,0.00,,,0.00,WeatherCatV1.15B25,2013-05-08 08:33:00,
2013-05-08 04:38:00,56.3,51.2,29.95,NNE,32,0.0,0.0,83,0.00,,,0.00,WeatherCatV1.15B25,2013-05-08 08:38:00,
2013-05-08 04:43:00,56.3,51.2,29.95,NNE,32,0.0,0.0,83,0.00,,,0.00,WeatherCatV1.15B25,2013-05-08 08:43:00,
2013-05-08 04:48:00,56.1,51.0,29.95,NNE,32,0.0,0.0,83,0.00,,,0.00,WeatherCatV1.15B25,2013-05-08 08:48:00,
2013-05-08 04:53:00,56.0,50.9,29.95,NNE,32,0.0,0.0,83,0.00,,,0.00,WeatherCatV1.15B25,2013-05-08 08:53:00,
2013-05-08 04:58:00,55.9,50.8,29.95,NNE,32,0.0,0.0,83,0.00,,,0.00,WeatherCatV1.15B25,2013-05-08 08:58:00,
2013-05-08 05:03:00,55.8,50.7,29.95,NNE,32,0.0,0.0,83,0.00,,,0.00,WeatherCatV1.15B25,2013-05-08 09:03:00,
2013-05-08 05:08:00,55.7,50.6,29.95,NNE,32,0.0,0.0,83,0.00,,,0.00,WeatherCatV1.15B25,2013-05-08 09:08:00,
2013-05-08 05:13:00,55.6,50.5,29.95,NNE,32,0.0,0.0,83,0.00,,,0.00,WeatherCatV1.15B25,2013-05-08 09:13:00,
2013-05-08 05:18:00,55.5,50.4,29.95,NNE,32,0.0,0.0,83,0.00,,,0.00,WeatherCatV1.15B25,2013-05-08 09:18:00,
2013-05-08 05:23:00,55.4,50.3,29.95,NNE,32,0.0,0.0,83,0.00,,,0.00,WeatherCatV1.15B25,2013-05-08 09:23:00,
2013-05-08 05:28:00,55.3,50.2,29.95,NNE,32,0.0,0.0,83,0.00,,,0.00,WeatherCatV1.15B25,2013-05-08 09:28:00,
2013-05-08 05:33:00,55.2,50.1,29.95,NNE,32,0.0,0.0,83,0.00,,,0.00,WeatherCatV1.15B25,2013-05-08 09:33:00,
2013-05-08 05:38:00,55.1,50.0,29.95,NNE,32,0.0,0.0,83,0.00,,,0.00,WeatherCatV1.15B25,2013-05-08 09:38:00,
2013-05-08 05:43:00,55.0,49.9,29.95,NNE,32,0.0,0.0,83,0.00,,,0.00,WeatherCatV1.15B25,2013-05-08 09:43:00,
2013-05-08 05:48:00,55.0,49.9,29.95,NNE,32,0.0,0.0,83,0.00,,,0.00,WeatherCatV1.15B25,2013-05-08 09:48:00,
2013-05-08 05:53:00,54.9,49.8,29.95,NNE,32,0.0,0.0,83,0.00,,,0.00,WeatherCatV1.15B25,2013-05-08 09:53:00,
2013-05-08 05:58:00,54.8,49.7,29.95,NNE,32,0.0,0.0,83,0.00,,,0.00,WeatherCatV1.15B25,2013-05-08 09:58:00,
2013-05-08 06:03:00,54.6,49.9,29.95,NNE,32,0.0,0.0,84,0.00,,,0.00,WeatherCatV1.15B25,2013-05-08 10:03:00,
2013-05-08 06:08:00,54.5,49.8,29.95,NNE,32,0.0,0.0,84,0.00,,,0.00,WeatherCatV1.15B25,2013-05-08 10:08:00,
2013-05-08 06:13:00,54.3,49.6,29.95,NNE,32,0.0,0.0,84,0.00,,,0.00,WeatherCatV1.15B25,2013-05-08 10:13:00,
2013-05-08 06:18:00,54.1,49.4,29.95,NNE,32,0.0,0.0,84,0.00,,,0.00,WeatherCatV1.15B25,2013-05-08 10:18:00,
2013-05-08 06:23:00,54.0,49.3,29.95,NNE,32,0.0,0.0,84,0.00,,,0.00,WeatherCatV1.15B25,2013-05-08 10:23:00,
2013-05-08 06:28:00,53.8,49.1,29.96,NNE,32,0.0,0.0,84,0.00,,,0.00,WeatherCatV1.15B25,2013-05-08 10:28:00,
2013-05-08 06:33:00,53.7,49.3,29.96,NNE,32,0.0,0.0,85,0.00,,,0.00,WeatherCatV1.15B25,2013-05-08 10:33:00,
2013-05-08 06:38:00,53.7,49.3,29.96,NNE,32,0.0,0.0,85,0.00,,,0.00,WeatherCatV1.15B25,2013-05-08 10:38:00,
2013-05-08 06:43:00,53.8,49.4,29.96,NNE,32,0.0,0.0,85,0.00,,,0.00,WeatherCatV1.15B25,2013-05-08 10:43:00,
2013-05-08 06:48:00,53.9,49.5,29.97,NNE,32,0.0,0.0,85,0.00,,,0.00,WeatherCatV1.15B25,2013-05-08 10:48:00,
2013-05-08 06:53:00,53.9,49.8,29.97,NNE,32,0.0,0.0,86,0.00,,,0.00,WeatherCatV1.15B25,2013-05-08 10:53:00,
2013-05-08 06:58:00,54.0,49.9,29.97,NNE,32,0.0,0.0,86,0.00,,,0.00,WeatherCatV1.15B25,2013-05-08 10:58:00,
2013-05-08 07:03:00,54.3,50.2,29.97,NNE,32,0.0,0.0,86,0.00,,,0.00,WeatherCatV1.15B25,2013-05-08 11:03:00,
2013-05-08 07:08:00,54.5,50.4,29.97,NNE,32,0.0,0.0,86,0.00,,,0.00,WeatherCatV1.15B25,2013-05-08 11:08:00,
2013-05-08 07:13:00,54.9,51.1,29.97,NNE,32,0.0,0.0,87,0.00,,,0.00,WeatherCatV1.15B25,2013-05-08 11:13:00,
2013-05-08 07:18:00,55.3,51.2,29.97,NNE,32,0.0,0.0,86,0.00,,,0.00,WeatherCatV1.15B25,2013-05-08 11:18:00,
2013-05-08 07:23:00,55.7,51.9,29.97,NNE,32,0.0,0.0,87,0.00,,,0.00,WeatherCatV1.15B25,2013-05-08 11:23:00,
2013-05-08 07:28:00,56.1,52.0,29.97,NNE,32,0.0,0.0,86,0.00,,,0.00,WeatherCatV1.15B25,2013-05-08 11:28:00,
2013-05-08 07:33:00,56.4,52.3,29.98,NNE,32,0.0,0.0,86,0.00,,,0.00,WeatherCatV1.15B25,2013-05-08 11:33:00,
2013-05-08 07:38:00,56.7,52.6,29.98,NNE,32,0.0,0.0,86,0.00,,,0.00,WeatherCatV1.15B25,2013-05-08 11:38:00,
2013-05-08 07:43:00,57.2,53.7,29.97,NNE,32,0.0,0.0,88,0.00,,,0.00,WeatherCatV1.15B25,2013-05-08 11:43:00,
2013-05-08 07:48:00,57.6,53.1,29.97,NNE,32,0.0,0.0,85,0.00,,,0.00,WeatherCatV1.15B25,2013-05-08 11:48:00,
2013-05-08 07:53:00,58.6,53.8,29.97,NE,42,0.0,1.0,84,0.00,,,0.00,WeatherCatV1.15B25,2013-05-08 11:53:00,
2013-05-08 07:58:00,59.6,54.1,29.97,NE,41,0.0,1.0,82,0.00,,,0.00,WeatherCatV1.15B25,2013-05-08 11:58:00,
2013-05-08 08:03:00,60.5,54.6,29.97,NE,42,0.0,0.0,81,0.00,,,0.00,WeatherCatV1.15B25,2013-05-08 12:03:00,
2013-05-08 08:08:00,61.3,54.4,29.98,ENE,62,0.0,2.0,78,0.00,,,0.00,WeatherCatV1.15B25,2013-05-08 12:08:00,
2013-05-08 08:13:00,61.9,54.2,29.98,ENE,62,0.0,0.0,76,0.00,,,0.00,WeatherCatV1.15B25,2013-05-08 12:13:00,
2013-05-08 08:18:00,62.4,54.4,29.97,NNE,14,0.0,1.0,75,0.00,,,0.00,WeatherCatV1.15B25,2013-05-08 12:18:00,
2013-05-08 08:23:00,63.2,54.8,29.98,NNE,14,0.0,1.0,74,0.00,,,0.00,WeatherCatV1.15B25,2013-05-08 12:23:00,
2013-05-08 08:28:00,63.7,54.1,29.98,NNE,15,0.0,1.0,71,0.00,,,0.00,WeatherCatV1.15B25,2013-05-08 12:28:00,
2013-05-08 08:33:00,64.0,54.4,29.98,NNE,15,0.0,0.0,71,0.00,,,0.00,WeatherCatV1.15B25,2013-05-08 12:33:00,
2013-05-08 08:38:00,64.3,54.3,29.98,North,0,0.0,0.0,70,0.00,,,0.00,WeatherCatV1.15B25,2013-05-08 12:38:00,
2013-05-08 08:43:00,64.2,54.2,29.98,NW,317,0.0,2.0,70,0.00,,,0.00,WeatherCatV1.15B25,2013-05-08 12:43:00,
2013-05-08 08:48:00,64.3,54.3,29.98,NE,36,0.0,0.0,70,0.00,,,0.00,WeatherCatV1.15B25,2013-05-08 12:48:00,
2013-05-08 08:53:00,64.5,54.1,29.98,ENE,71,0.0,0.0,69,0.00,,,0.00,WeatherCatV1.15B25,2013-05-08 12:53:00,
2013-05-08 08:58:00,64.5,54.1,29.98,NNW,344,1.0,4.0,69,0.00,,,0.00,WeatherCatV1.15B25,2013-05-08 12:58:00,
2013-05-08 09:03:00,64.6,54.2,29.97,NE,44,0.0,0.0,69,0.00,,,0.00,WeatherCatV1.15B25,2013-05-08 13:03:00,
2013-05-08 09:08:00,64.7,53.9,29.97,NE,44,0.0,0.0,68,0.00,,,0.00,WeatherCatV1.15B25,2013-05-08 13:08:00,
2013-05-08 09:13:00,65.0,55.0,29.98,ESE,105,1.0,1.0,70,0.00,,,0.00,WeatherCatV1.15B25,2013-05-08 13:13:00,
2013-05-08 09:18:00,65.4,55.0,29.98,ESE,105,1.0,4.0,69,0.00,,,0.00,WeatherCatV1.15B25,2013-05-08 13:18:00,
2013-05-08 09:23:00,65.7,54.8,29.98,North,11,0.0,3.0,68,0.00,,,0.00,WeatherCatV1.15B25,2013-05-08 13:23:00,
2013-05-08 09:28:00,65.8,54.1,29.98,NE,52,1.0,3.0,66,0.00,,,0.00,WeatherCatV1.15B25,2013-05-08 13:28:00,
2013-05-08 09:33:00,65.7,54.4,29.98,NE,52,0.0,0.0,67,0.00,,,0.00,WeatherCatV1.15B25,2013-05-08 13:33:00,
2013-05-08 09:38:00,66.2,54.9,29.98,NNW,338,0.0,2.0,67,0.00,,,0.00,WeatherCatV1.15B25,2013-05-08 13:38:00,
2013-05-08 09:43:00,67.6,56.7,29.98,ESE,116,0.0,1.0,68,0.00,,,0.00,WeatherCatV1.15B25,2013-05-08 13:43:00,
2013-05-08 09:48:00,68.5,55.8,29.97,ESE,121,0.0,4.0,64,0.00,,,0.00,WeatherCatV1.15B25,2013-05-08 13:48:00,
2013-05-08 09:53:00,69.2,56.1,29.97,SE,126,3.0,4.0,63,0.00,,,0.00,WeatherCatV1.15B25,2013-05-08 13:53:00,
2013-05-08 09:58:00,69.2,54.7,29.97,SSE,155,0.0,0.0,60,0.00,,,0.00,WeatherCatV1.15B25,2013-05-08 13:58:00,
2013-05-08 10:03:00,69.4,54.9,29.97,ESE,121,5.0,6.0,60,0.00,,,0.00,WeatherCatV1.15B25,2013-05-08 14:03:00,
2013-05-08 10:08:00,69.0,54.5,29.96,ESE,121,0.0,0.0,60,0.00,,,0.00,WeatherCatV1.15B25,2013-05-08 14:08:00,
2013-05-08 10:13:00,69.3,53.9,29.96,SE,130,1.0,5.0,58,0.00,,,0.00,WeatherCatV1.15B25,2013-05-08 14:13:00,
2013-05-08 10:18:00,69.8,53.9,29.97,WSW,251,0.0,4.0,57,0.00,,,0.00,WeatherCatV1.15B25,2013-05-08 14:18:00,
2013-05-08 10:23:00,70.2,54.7,29.97,SE,140,0.0,0.0,58,0.00,,,0.00,WeatherCatV1.15B25,2013-05-08 14:23:00,
2013-05-08 10:28:00,70.2,54.2,29.97,SE,127,0.0,0.0,57,0.00,,,0.00,WeatherCatV1.15B25,2013-05-08 14:28:00,
2013-05-08 10:33:00,69.9,54.4,29.97,SSE,155,0.0,4.0,58,0.00,,,0.00,WeatherCatV1.15B25,2013-05-08 14:33:00,
2013-05-08 10:38:00,69.7,54.2,29.97,SSE,147,0.0,0.0,58,0.00,,,0.00,WeatherCatV1.15B25,2013-05-08 14:38:00,
2013-05-08 10:43:00,69.4,54.0,29.97,East,99,0.0,0.0,58,0.00,,,0.00,WeatherCatV1.15B25,2013-05-08 14:43:00,
2013-05-08 10:48:00,69.8,54.8,29.97,East,101,2.0,2.0,59,0.00,,,0.00,WeatherCatV1.15B25,2013-05-08 14:48:00,
2013-05-08 10:53:00,70.2,54.7,29.97,ESE,119,0.0,3.0,58,0.00,,,0.00,WeatherCatV1.15B25,2013-05-08 14:53:00,
2013-05-08 10:58:00,69.3,53.4,29.97,NNW,344,3.0,4.0,57,0.00,,,0.00,WeatherCatV1.15B25,2013-05-08 14:58:00,
2013-05-08 11:03:00,67.3,52.9,29.97,NNW,339,3.0,4.0,60,0.00,,,0.00,WeatherCatV1.15B25,2013-05-08 15:03:00,
2013-05-08 11:08:00,66.3,53.3,29.97,NNW,337,3.0,4.0,63,0.00,,,0.00,WeatherCatV1.15B25,2013-05-08 15:08:00,
2013-05-08 11:13:00,66.4,53.4,29.98,NNW,340,1.0,4.0,63,0.00,,,0.00,WeatherCatV1.15B25,2013-05-08 15:13:00,
2013-05-08 11:18:00,67.9,54.8,29.98,NE,55,0.0,3.0,63,0.00,,,0.00,WeatherCatV1.15B25,2013-05-08 15:18:00,
2013-05-08 11:23:00,68.9,54.9,29.98,NE,35,2.0,4.0,61,0.00,,,0.00,WeatherCatV1.15B25,2013-05-08 15:23:00,
2013-05-08 11:28:00,68.1,53.7,29.98,NNW,333,2.0,4.0,60,0.00,,,0.00,WeatherCatV1.15B25,2013-05-08 15:28:00,
2013-05-08 11:33:00,67.5,54.0,29.97,NE,42,0.0,0.0,62,0.00,,,0.00,WeatherCatV1.15B25,2013-05-08 15:33:00,
2013-05-08 11:38:00,67.3,54.3,29.98,North,355,1.0,2.0,63,0.00,,,0.00,WeatherCatV1.15B25,2013-05-08 15:38:00,
2013-05-08 11:43:00,67.0,54.0,29.97,NNW,347,0.0,3.0,63,0.00,,,0.00,WeatherCatV1.15B25,2013-05-08 15:43:00,
2013-05-08 11:48:00,67.2,53.7,29.97,NNW,345,2.0,4.0,62,0.00,,,0.00,WeatherCatV1.15B25,2013-05-08 15:48:00,
2013-05-08 11:53:00,66.7,53.3,29.97,North,350,2.0,3.0,62,0.00,,,0.00,WeatherCatV1.15B25,2013-05-08 15:53:00,
2013-05-08 11:58:00,67.1,54.5,29.97,NE,36,1.0,4.0,64,0.00,,,0.00,WeatherCatV1.15B25,2013-05-08 15:58:00,
2013-05-08 12:03:00,66.9,53.4,29.97,NNW,341,0.0,3.0,62,0.00,,,0.00,WeatherCatV1.15B25,2013-05-08 16:03:00,
2013-05-08 12:08:00,67.5,54.5,29.97,North,355,0.0,5.0,63,0.00,,,0.00,WeatherCatV1.15B25,2013-05-08 16:08:00,
2013-05-08 12:13:00,69.0,54.1,29.96,North,5,4.0,5.0,59,0.00,,,0.00,WeatherCatV1.15B25,2013-05-08 16:13:00,
2013-05-08 12:18:00,69.5,54.1,29.96,NE,56,4.0,6.0,58,0.00,,,0.00,WeatherCatV1.15B25,2013-05-08 16:18:00,
2013-05-08 12:23:00,69.5,53.6,29.96,NW,317,4.0,6.0,57,0.00,,,0.00,WeatherCatV1.15B25,2013-05-08 16:23:00,
2013-05-08 12:28:00,68.1,53.2,29.97,North,0,1.0,6.0,59,0.00,,,0.00,WeatherCatV1.15B25,2013-05-08 16:28:00,
2013-05-08 12:33:00,67.5,52.2,29.97,North,355,1.0,11.0,58,0.00,,,0.00,WeatherCatV1.15B25,2013-05-08 16:33:00,
2013-05-08 12:38:00,66.8,52.9,29.96,NNW,338,3.0,3.0,61,0.00,,,0.00,WeatherCatV1.15B25,2013-05-08 16:38:00,
2013-05-08 12:43:00,66.3,52.4,29.96,North,0,0.0,3.0,61,0.00,,,0.00,WeatherCatV1.15B25,2013-05-08 16:43:00,
2013-05-08 12:48:00,66.0,52.6,29.96,North,0,6.0,6.0,62,0.00,,,0.00,WeatherCatV1.15B25,2013-05-08 16:48:00,
2013-05-08 12:53:00,65.9,52.5,29.96,NNW,343,1.0,6.0,62,0.00,,,0.00,WeatherCatV1.15B25,2013-05-08 16:53:00,
2013-05-08 12:58:00,66.8,52.9,29.96,North,0,4.0,6.0,61,0.00,,,0.00,WeatherCatV1.15B25,2013-05-08 16:58:00,
2013-05-08 13:03:00,67.4,53.5,29.97,East,82,0.0,4.0,61,0.00,,,0.00,WeatherCatV1.15B25,2013-05-08 17:03:00,
2013-05-08 13:08:00,67.2,52.8,29.96,NNE,23,1.0,5.0,60,0.00,,,0.00,WeatherCatV1.15B25,2013-05-08 17:08:00,
2013-05-08 13:13:00,67.3,53.4,29.96,NNE,30,4.0,6.0,61,0.00,,,0.00,WeatherCatV1.15B25,2013-05-08 17:13:00,
2013-05-08 13:18:00,67.2,53.3,29.96,NW,310,0.0,4.0,61,0.00,,,0.00,WeatherCatV1.15B25,2013-05-08 17:18:00,
2013-05-08 13:23:00,66.1,52.3,29.96,NNW,346,4.0,6.0,61,0.00,,,0.00,WeatherCatV1.15B25,2013-05-08 17:23:00,
2013-05-08 13:28:00,65.4,52.9,29.96,NNE,17,3.0,4.0,64,0.00,,,0.00,WeatherCatV1.15B25,2013-05-08 17:28:00,
2013-05-08 13:33:00,65.7,52.8,29.96,NNE,14,4.0,5.0,63,0.00,,,0.00,WeatherCatV1.15B25,2013-05-08 17:33:00,
2013-05-08 13:38:00,65.6,53.1,29.96,ENE,60,2.0,3.0,64,0.00,,,0.00,WeatherCatV1.15B25,2013-05-08 17:38:00,
2013-05-08 13:43:00,66.4,53.4,29.96,NNE,32,2.0,5.0,63,0.00,,,0.00,WeatherCatV1.15B25,2013-05-08 17:43:00,
2013-05-08 13:48:00,66.9,53.0,29.96,NNW,337,5.0,11.0,61,0.00,,,0.00,WeatherCatV1.15B25,2013-05-08 17:48:00,
2013-05-08 13:53:00,67.7,54.6,29.95,NW,323,6.0,6.0,63,0.00,,,0.00,WeatherCatV1.15B25,2013-05-08 17:53:00,
2013-05-08 13:58:00,67.8,53.8,29.95,NNW,336,5.0,5.0,61,0.00,,,0.00,WeatherCatV1.15B25,2013-05-08 17:58:00,
2013-05-08 14:03:00,67.8,53.4,29.95,NNW,339,4.0,7.0,60,0.00,,,0.00,WeatherCatV1.15B25,2013-05-08 18:03:00,
2013-05-08 14:08:00,67.1,53.2,29.95,SW,227,1.0,5.0,61,0.00,,,0.00,WeatherCatV1.15B25,2013-05-08 18:08:00,
2013-05-08 14:13:00,67.2,53.3,29.95,NNE,24,4.0,7.0,61,0.00,,,0.00,WeatherCatV1.15B25,2013-05-08 18:13:00,
2013-05-08 14:18:00,68.0,54.5,29.94,NE,40,2.0,5.0,62,0.00,,,0.00,WeatherCatV1.15B25,2013-05-08 18:18:00,
2013-05-08 14:23:00,68.7,53.8,29.94,NNW,334,4.0,6.0,59,0.00,,,0.00,WeatherCatV1.15B25,2013-05-08 18:23:00,
2013-05-08 14:28:00,67.9,53.5,29.94,NNW,341,1.0,3.0,60,0.00,,,0.00,WeatherCatV1.15B25,2013-05-08 18:28:00,
2013-05-08 14:33:00,67.5,53.1,29.94,ENE,72,3.0,4.0,60,0.00,,,0.00,WeatherCatV1.15B25,2013-05-08 18:33:00,
2013-05-08 14:38:00,67.1,52.7,29.94,North,349,1.0,5.0,60,0.00,,,0.00,WeatherCatV1.15B25,2013-05-08 18:38:00,
2013-05-08 14:43:00,68.3,56.1,29.93,NNE,24,0.0,1.0,65,0.00,,,0.00,WeatherCatV1.15B25,2013-05-08 18:43:00,
2013-05-08 14:48:00,68.3,53.4,29.93,North,9,2.0,3.0,59,0.00,,,0.00,WeatherCatV1.15B25,2013-05-08 18:48:00,
2013-05-08 14:53:00,68.7,54.7,29.93,NE,40,2.0,4.0,61,0.00,,,0.00,WeatherCatV1.15B25,2013-05-08 18:53:00,
2013-05-08 14:58:00,69.6,54.6,29.94,NE,52,2.0,5.0,59,0.00,,,0.00,WeatherCatV1.15B25,2013-05-08 18:58:00,
2013-05-08 15:03:00,69.2,53.3,29.94,NNW,344,4.0,5.0,57,0.00,,,0.00,WeatherCatV1.15B25,2013-05-08 19:03:00,
2013-05-08 15:08:00,68.2,52.8,29.94,North,355,2.0,6.0,58,0.00,,,0.00,WeatherCatV1.15B25,2013-05-08 19:08:00,
2013-05-08 15:13:00,67.5,53.1,29.94,North,0,5.0,6.0,60,0.00,,,0.00,WeatherCatV1.15B25,2013-05-08 19:13:00,
2013-05-08 15:18:00,66.4,52.1,29.95,North,355,0.0,5.0,60,0.00,,,0.00,WeatherCatV1.15B25,2013-05-08 19:18:00,
2013-05-08 15:23:00,66.1,52.7,29.95,NNE,18,2.0,3.0,62,0.00,,,0.00,WeatherCatV1.15B25,2013-05-08 19:23:00,
2013-05-08 15:28:00,65.6,52.2,29.95,NNW,343,0.0,5.0,62,0.00,,,0.00,WeatherCatV1.15B25,2013-05-08 19:28:00,
2013-05-08 15:33:00,65.3,52.4,29.94,NE,37,0.0,4.0,63,0.00,,,0.00,WeatherCatV1.15B25,2013-05-08 19:33:00,
2013-05-08 15:38:00,65.4,52.9,29.94,NNE,28,0.0,0.0,64,0.00,,,0.00,WeatherCatV1.15B25,2013-05-08 19:38:00,
2013-05-08 15:43:00,65.7,53.2,29.94,NE,48,5.0,5.0,64,0.00,,,0.00,WeatherCatV1.15B25,2013-05-08 19:43:00,
2013-05-08 15:48:00,66.1,53.1,29.95,North,0,2.0,3.0,63,0.00,,,0.00,WeatherCatV1.15B25,2013-05-08 19:48:00,
2013-05-08 15:53:00,66.4,53.0,29.95,NNW,338,3.0,4.0,62,0.00,,,0.00,WeatherCatV1.15B25,2013-05-08 19:53:00,
2013-05-08 15:58:00,66.8,53.8,29.95,NNE,22,0.0,1.0,63,0.00,,,0.00,WeatherCatV1.15B25,2013-05-08 19:58:00,
2013-05-08 16:03:00,67.1,53.6,29.95,NE,51,0.0,2.0,62,0.00,,,0.00,WeatherCatV1.15B25,2013-05-08 20:03:00,
2013-05-08 16:08:00,67.5,54.0,29.94,North,0,0.0,3.0,62,0.00,,,0.00,WeatherCatV1.15B25,2013-05-08 20:08:00,
2013-05-08 16:13:00,67.6,54.1,29.94,NNW,343,0.0,3.0,62,0.00,,,0.00,WeatherCatV1.15B25,2013-05-08 20:13:00,
2013-05-08 16:18:00,67.6,53.7,29.94,North,5,0.0,4.0,61,0.00,,,0.00,WeatherCatV1.15B25,2013-05-08 20:18:00,
2013-05-08 16:23:00,67.7,53.8,29.94,NE,40,2.0,2.0,61,0.00,,,0.00,WeatherCatV1.15B25,2013-05-08 20:23:00,
2013-05-08 16:28:00,67.7,53.8,29.94,NNW,341,0.0,0.0,61,0.00,,,0.00,WeatherCatV1.15B25,2013-05-08 20:28:00,
2013-05-08 16:33:00,68.0,54.0,29.93,NE,51,0.0,4.0,61,0.00,,,0.00,WeatherCatV1.15B25,2013-05-08 20:33:00,
2013-05-08 16:38:00,68.3,55.2,29.93,NE,51,0.0,0.0,63,0.00,,,0.00,WeatherCatV1.15B25,2013-05-08 20:38:00,
2013-05-08 16:43:00,68.4,54.4,29.93,North,350,1.0,3.0,61,0.00,,,0.00,WeatherCatV1.15B25,2013-05-08 20:43:00,
2013-05-08 16:48:00,68.5,54.5,29.93,East,88,0.0,1.0,61,0.00,,,0.00,WeatherCatV1.15B25,2013-05-08 20:48:00,
2013-05-08 16:53:00,68.6,54.1,29.93,NNE,24,0.0,3.0,60,0.00,,,0.00,WeatherCatV1.15B25,2013-05-08 20:53:00,
2013-05-08 16:58:00,68.6,54.1,29.93,NNE,28,0.0,2.0,60,0.00,,,0.00,WeatherCatV1.15B25,2013-05-08 20:58:00,
2013-05-08 17:03:00,68.4,54.4,29.92,NNW,345,0.0,0.0,61,0.00,,,0.00,WeatherCatV1.15B25,2013-05-08 21:03:00,
2013-05-08 17:08:00,68.3,53.9,29.93,North,349,0.0,1.0,60,0.00,,,0.00,WeatherCatV1.15B25,2013-05-08 21:08:00,
2013-05-08 17:13:00,68.0,53.6,29.92,North,0,0.0,4.0,60,0.00,,,0.00,WeatherCatV1.15B25,2013-05-08 21:13:00,
2013-05-08 17:18:00,67.8,54.3,29.92,North,0,0.0,0.0,62,0.00,,,0.00,WeatherCatV1.15B25,2013-05-08 21:18:00,
2013-05-08 17:23:00,67.7,54.2,29.92,NE,44,0.0,1.0,62,0.00,,,0.00,WeatherCatV1.15B25,2013-05-08 21:23:00,
2013-05-08 17:28:00,67.7,54.2,29.92,North,0,2.0,3.0,62,0.00,,,0.00,WeatherCatV1.15B25,2013-05-08 21:28:00,
2013-05-08 17:33:00,67.6,53.7,29.92,NNW,348,0.0,4.0,61,0.00,,,0.00,WeatherCatV1.15B25,2013-05-08 21:33:00,
2013-05-08 17:38:00,67.1,53.6,29.92,NNW,346,0.0,2.0,62,0.00,,,0.00,WeatherCatV1.15B25,2013-05-08 21:38:00,
2013-05-08 17:43:00,67.0,54.0,29.92,North,355,2.0,3.0,63,0.00,,,0.00,WeatherCatV1.15B25,2013-05-08 21:43:00,
2013-05-08 17:48:00,66.9,53.9,29.92,North,355,0.0,3.0,63,0.00,,,0.00,WeatherCatV1.15B25,2013-05-08 21:48:00,
2013-05-08 17:53:00,66.9,53.9,29.92,North,0,0.0,2.0,63,0.00,,,0.00,WeatherCatV1.15B25,2013-05-08 21:53:00,
2013-05-08 17:58:00,66.9,54.3,29.92,North,0,1.0,2.0,64,0.00,,,0.00,WeatherCatV1.15B25,2013-05-08 21:58:00,
2013-05-08 18:03:00,66.8,54.6,29.92,NNW,348,3.0,3.0,65,0.00,,,0.00,WeatherCatV1.15B25,2013-05-08 22:03:00,
2013-05-08 18:08:00,66.6,54.0,29.92,NNE,29,2.0,3.0,64,0.00,,,0.00,WeatherCatV1.15B25,2013-05-08 22:08:00,
2013-05-08 18:13:00,66.4,54.3,29.92,NNW,342,0.0,0.0,65,0.00,,,0.00,WeatherCatV1.15B25,2013-05-08 22:13:00,
2013-05-08 18:18:00,66.4,54.3,29.92,NNE,29,0.0,0.0,65,0.00,,,0.00,WeatherCatV1.15B25,2013-05-08 22:18:00,
2013-05-08 18:23:00,66.5,54.4,29.92,North,9,0.0,3.0,65,0.00,,,0.00,WeatherCatV1.15B25,2013-05-08 22:23:00,
2013-05-08 18:28:00,66.5,53.1,29.92,NNW,346,1.0,2.0,62,0.00,,,0.00,WeatherCatV1.15B25,2013-05-08 22:28:00,
2013-05-08 18:33:00,66.5,53.5,29.92,North,355,0.0,3.0,63,0.00,,,0.00,WeatherCatV1.15B25,2013-05-08 22:33:00,
2013-05-08 18:38:00,66.6,53.6,29.92,NNE,17,0.0,2.0,63,0.00,,,0.00,WeatherCatV1.15B25,2013-05-08 22:38:00,
2013-05-08 18:43:00,66.5,53.5,29.92,NNE,31,0.0,0.0,63,0.00,,,0.00,WeatherCatV1.15B25,2013-05-08 22:43:00,
2013-05-08 18:48:00,66.4,53.8,29.92,NNE,30,0.0,1.0,64,0.00,,,0.00,WeatherCatV1.15B25,2013-05-08 22:48:00,
2013-05-08 18:53:00,66.3,54.2,29.92,NNW,340,0.0,3.0,65,0.00,,,0.00,WeatherCatV1.15B25,2013-05-08 22:53:00,
2013-05-08 18:58:00,66.2,54.5,29.93,NE,52,0.0,1.0,66,0.00,,,0.00,WeatherCatV1.15B25,2013-05-08 22:58:00,
2013-05-08 19:03:00,66.0,54.7,29.92,NE,52,0.0,0.0,67,0.00,,,0.00,WeatherCatV1.15B25,2013-05-08 23:03:00,
2013-05-08 19:08:00,65.7,54.4,29.93,NNE,19,0.0,0.0,67,0.00,,,0.00,WeatherCatV1.15B25,2013-05-08 23:08:00,
2013-05-08 19:13:00,65.3,54.1,29.93,NNE,18,0.0,0.0,67,0.00,,,0.00,WeatherCatV1.15B25,2013-05-08 23:13:00,
2013-05-08 19:18:00,65.0,54.2,29.93,NNE,19,0.0,0.0,68,0.00,,,0.00,WeatherCatV1.15B25,2013-05-08 23:18:00,
2013-05-08 19:23:00,64.6,54.2,29.93,NNE,19,0.0,0.0,69,0.00,,,0.00,WeatherCatV1.15B25,2013-05-08 23:23:00,
2013-05-08 19:28:00,64.1,54.9,29.93,NNE,19,0.0,0.0,72,0.00,,,0.00,WeatherCatV1.15B25,2013-05-08 23:28:00,
2013-05-08 19:33:00,63.5,55.1,29.93,NNE,18,0.0,0.0,74,0.00,,,0.01,WeatherCatV1.15B25,2013-05-08 23:33:00,
2013-05-08 19:38:00,63.0,55.3,29.93,NNE,19,0.0,0.0,76,0.09,,,0.02,WeatherCatV1.15B25,2013-05-08 23:38:00,
2013-05-08 19:43:00,62.6,55.3,29.94,NNE,19,0.0,0.0,77,0.19,,,0.04,WeatherCatV1.15B25,2013-05-08 23:43:00,
2013-05-08 19:48:00,62.2,55.6,29.93,NNE,18,0.0,0.0,79,0.14,,,0.05,WeatherCatV1.15B25,2013-05-08 23:48:00,
2013-05-08 19:53:00,61.9,55.7,29.93,NNE,22,0.0,0.0,80,0.15,,,0.06,WeatherCatV1.15B25,2013-05-08 23:53:00,
2013-05-08 19:58:00,61.6,55.7,29.93,NNE,23,0.0,0.0,81,0.15,,,0.07,WeatherCatV1.15B25,2013-05-08 23:58:00,
2013-05-08 20:03:00,61.3,55.8,29.93,NNE,23,0.0,0.0,82,0.13,,,0.08,WeatherCatV1.15B25,2013-05-09 00:03:00,
2013-05-08 20:08:00,60.9,55.4,29.93,NNE,23,0.0,0.0,82,0.08,,,0.09,WeatherCatV1.15B25,2013-05-09 00:08:00,
2013-05-08 20:13:00,60.6,55.1,29.93,NNE,22,0.0,0.0,82,0.08,,,0.09,WeatherCatV1.15B25,2013-05-09 00:13:00,
2013-05-08 20:18:00,60.6,55.7,29.93,NNE,23,0.0,0.0,84,0.05,,,0.09,WeatherCatV1.15B25,2013-05-09 00:18:00,
2013-05-08 20:23:00,60.5,56.0,29.93,NNE,22,0.0,0.0,85,0.04,,,0.10,WeatherCatV1.15B25,2013-05-09 00:23:00,
2013-05-08 20:28:00,60.6,56.1,29.93,NNE,22,0.0,0.0,85,0.04,,,0.10,WeatherCatV1.15B25,2013-05-09 00:28:00,
2013-05-08 20:33:00,60.5,56.3,29.93,NNE,23,0.0,0.0,86,0.04,,,0.10,WeatherCatV1.15B25,2013-05-09 00:33:00,
2013-05-08 20:38:00,60.4,56.2,29.93,NNE,23,0.0,0.0,86,0.00,,,0.10,WeatherCatV1.15B25,2013-05-09 00:38:00,
2013-05-08 20:43:00,60.3,56.1,29.93,NNE,22,0.0,0.0,86,0.00,,,0.10,WeatherCatV1.15B25,2013-05-09 00:43:00,
2013-05-08 20:48:00,60.3,56.4,29.93,NNE,22,0.0,0.0,87,0.00,,,0.11,WeatherCatV1.15B25,2013-05-09 00:48:00,
2013-05-08 20:53:00,60.0,55.8,29.93,NNE,23,0.0,0.0,86,0.00,,,0.11,WeatherCatV1.15B25,2013-05-09 00:53:00,
2013-05-08 20:58:00,59.8,55.9,29.94,NNE,22,0.0,0.0,87,0.00,,,0.11,WeatherCatV1.15B25,2013-05-09 00:58:00,
2013-05-08 21:03:00,59.6,55.7,29.94,NNE,22,0.0,0.0,87,0.00,,,0.11,WeatherCatV1.15B25,2013-05-09 01:03:00,
2013-05-08 21:08:00,59.5,55.6,29.94,NNE,23,0.0,0.0,87,0.00,,,0.11,WeatherCatV1.15B25,2013-05-09 01:08:00,
2013-05-08 21:13:00,59.1,55.2,29.94,NNE,23,1.0,2.0,87,0.00,,,0.12,WeatherCatV1.15B25,2013-05-09 01:13:00,
2013-05-08 21:18:00,58.3,54.4,29.94,NNE,23,0.0,0.0,87,0.00,,,0.12,WeatherCatV1.15B25,2013-05-09 01:18:00,
2013-05-08 21:23:00,57.8,54.0,29.94,NNE,22,0.0,0.0,87,0.05,,,0.13,WeatherCatV1.15B25,2013-05-09 01:23:00,
2013-05-08 21:28:00,57.6,53.8,29.94,NNE,22,0.0,0.0,87,0.05,,,0.13,WeatherCatV1.15B25,2013-05-09 01:28:00,
2013-05-08 21:33:00,57.6,53.8,29.95,NNE,23,0.0,0.0,87,0.07,,,0.14,WeatherCatV1.15B25,2013-05-09 01:33:00,
2013-05-08 21:38:00,57.5,53.7,29.94,NNE,22,0.0,0.0,87,0.06,,,0.14,WeatherCatV1.15B25,2013-05-09 01:38:00,
2013-05-08 21:43:00,57.5,54.0,29.94,NNE,22,0.0,0.0,88,0.04,,,0.14,WeatherCatV1.15B25,2013-05-09 01:43:00,
2013-05-08 21:48:00,57.5,54.0,29.94,NNE,23,0.0,0.0,88,0.00,,,0.14,WeatherCatV1.15B25,2013-05-09 01:48:00,
2013-05-08 21:53:00,57.5,54.0,29.94,NNE,23,0.0,0.0,88,0.00,,,0.14,WeatherCatV1.15B25,2013-05-09 01:53:00,
2013-05-08 21:58:00,57.5,54.0,29.94,NNE,23,0.0,0.0,88,0.00,,,0.14,WeatherCatV1.15B25,2013-05-09 01:58:00,
2013-05-08 22:03:00,57.5,54.0,29.94,NNE,23,0.0,0.0,88,0.00,,,0.14,WeatherCatV1.15B25,2013-05-09 02:03:00,
2013-05-08 22:08:00,57.6,54.4,29.94,NNE,23,0.0,0.0,89,0.00,,,0.14,WeatherCatV1.15B25,2013-05-09 02:08:00,
2013-05-08 22:13:00,57.7,54.5,29.94,NNE,22,0.0,0.0,89,0.00,,,0.14,WeatherCatV1.15B25,2013-05-09 02:13:00,
2013-05-08 22:18:00,57.8,54.6,29.95,NNE,22,0.0,0.0,89,0.00,,,0.14,WeatherCatV1.15B25,2013-05-09 02:18:00,
2013-05-08 22:23:00,57.8,54.6,29.95,NNE,23,0.0,0.0,89,0.00,,,0.14,WeatherCatV1.15B25,2013-05-09 02:23:00,
2013-05-08 22:28:00,57.8,54.6,29.95,NNE,23,0.0,0.0,89,0.00,,,0.14,WeatherCatV1.15B25,2013-05-09 02:28:00,
2013-05-08 22:33:00,57.8,54.6,29.94,NNE,23,0.0,0.0,89,0.00,,,0.14,WeatherCatV1.15B25,2013-05-09 02:33:00,
2013-05-08 22:38:00,57.8,54.6,29.94,NNE,22,0.0,0.0,89,0.00,,,0.14,WeatherCatV1.15B25,2013-05-09 02:38:00,
2013-05-08 22:43:00,57.9,54.7,29.94,NNE,23,0.0,0.0,89,0.00,,,0.14,WeatherCatV1.15B25,2013-05-09 02:43:00,
2013-05-08 22:48:00,57.9,54.7,29.94,NNE,23,0.0,0.0,89,0.00,,,0.14,WeatherCatV1.15B25,2013-05-09 02:48:00,
2013-05-08 22:53:00,57.9,54.7,29.94,NNE,22,0.0,0.0,89,0.00,,,0.14,WeatherCatV1.15B25,2013-05-09 02:53:00,
2013-05-08 22:58:00,57.9,54.7,29.94,NNE,23,0.0,0.0,89,0.00,,,0.14,WeatherCatV1.15B25,2013-05-09 02:58:00,
2013-05-08 23:03:00,57.8,54.6,29.94,NNE,23,0.0,0.0,89,0.00,,,0.14,WeatherCatV1.15B25,2013-05-09 03:03:00,
2013-05-08 23:08:00,57.8,54.9,29.94,NNE,23,0.0,0.0,90,0.00,,,0.14,WeatherCatV1.15B25,2013-05-09 03:08:00,
2013-05-08 23:13:00,57.7,54.8,29.94,NNE,22,0.0,0.0,90,0.00,,,0.14,WeatherCatV1.15B25,2013-05-09 03:13:00,
2013-05-08 23:18:00,57.6,54.7,29.93,NNE,23,0.0,0.0,90,0.00,,,0.14,WeatherCatV1.15B25,2013-05-09 03:18:00,
2013-05-08 23:23:00,57.6,54.7,29.93,NNE,23,0.0,0.0,90,0.00,,,0.14,WeatherCatV1.15B25,2013-05-09 03:23:00,
2013-05-08 23:28:00,57.6,54.7,29.93,NNE,23,0.0,0.0,90,0.00,,,0.14,WeatherCatV1.15B25,2013-05-09 03:28:00,
2013-05-08 23:33:00,57.5,54.6,29.93,NNE,22,0.0,0.0,90,0.00,,,0.14,WeatherCatV1.15B25,2013-05-09 03:33:00,
2013-05-08 23:38:00,57.6,54.7,29.93,NNE,22,0.0,0.0,90,0.00,,,0.14,WeatherCatV1.15B25,2013-05-09 03:38:00,
2013-05-08 23:43:00,57.6,54.7,29.93,NNE,23,0.0,0.0,90,0.00,,,0.14,WeatherCatV1.15B25,2013-05-09 03:43:00,
2013-05-08 23:48:00,57.6,54.7,29.93,NNE,22,0.0,0.0,90,0.00,,,0.14,WeatherCatV1.15B25,2013-05-09 03:48:00,
2013-05-08 23:53:00,57.6,54.7,29.93,NNE,22,0.0,0.0,90,0.00,,,0.14,WeatherCatV1.15B25,2013-05-09 03:53:00,
2013-05-08 23:58:00,57.6,54.7,29.93,NNE,23,0.0,0.0,90,0.00,,,0.14,WeatherCatV1.15B25,2013-05-09 03:58:00,